TECHSAT 1B (GO-32)

Last updated on Sun Aug 09 2026 00:02:46 GMT+0000 (Coordinated Universal Time)

1 25397U 98043D 26220.60597859 .00000019 00000+0 28192-4 0 9996 2 25397 99.0110 214.6961 0002343 76.6803 283.4636 14.24437357458794
UTC large
Height (km)
Speed (km/s)
/
Latitude / Longitude
Inclination (degrees)
Orbital Period (minutes)
Azimuth
Elevation
Range (km)
Doppler Factor

Next 0 passes for location: London (51.5072 / 0.1276)

No passes found over London.
TECHSAT 1B (GO-32)